Retour au catalogue

BREEZE-M R/B

ActifHEO
NORAD 37827·ROCKET BODY·🇷🇺 Russia

Lancé Sep 29, 2011 depuis Baikonur Cosmodrome

Loading…

Prochains Passages (prochaines 24 heures)

TLE

FraisSource: Space-Track

Époque: Sep 14, 2026, 09:31 UTC

1 37827U 11054B   26257.39668914 -.00000166  00000-0  00000-0 0  9990
2 37827  17.0356 197.0503 5586334  67.7458  61.4437  2.07657997112244

Suivez BREEZE-M R/B en temps réel avec AllMySat

Download on the App Store